EXS31WM LGSR-EGCC

Flight info

Callsign EXS31WM
Flight time N/A
Altitude 36000
Route MADEX UL53 KOR DCT XANIS DCT DIMIS DCT RODON DCT KOFER DCT SAL DCT IPKIS DCT LABIN DCT LAPAB DCT RESIA DCT ELMUR DCT RIPUS DCT DITON DCT HOC DCT LUL DCT RLP DCT ROTSI DCT KOTUN DCT AMAXA DCT VESAN DCT RATUK DCT SOVAT L613 SANDY UN57 WELIN T420 ELVOS
Aircraft B738/M-SDE2E3FGHIRWXY/LB1

Departure

Time 2026-04-20 17:48
Airport Santorini International Airport (LGSR)

Arrival

Time N/A
Airport Manchester Airport (EGCC)
Time Latitude Longitude Altitude Speed Heading
2026-04-20 17:19 36.40420 25.47343 89 ft 0 kts 249°
2026-04-20 17:40 36.40420 25.47346 89 ft 2 kts 249°
2026-04-20 17:40 36.40429 25.47372 91 ft 2 kts 249°
2026-04-20 17:41 36.40432 25.47398 89 ft 4 kts 311°
2026-04-20 17:41 36.40410 25.47414 90 ft 3 kts 339°
2026-04-20 17:41 36.40389 25.47424 90 ft 1 kts 339°
2026-04-20 17:44 36.40410 25.47424 89 ft 8 kts 21°
2026-04-20 17:44 36.40427 25.47489 91 ft 9 kts 98°
2026-04-20 17:44 36.40377 25.47530 89 ft 10 kts 159°
2026-04-20 17:44 36.40306 25.47563 88 ft 11 kts 160°
2026-04-20 17:45 36.40236 25.47596 88 ft 11 kts 158°
2026-04-20 17:45 36.40142 25.47641 90 ft 16 kts 159°
2026-04-20 17:45 36.40039 25.47688 86 ft 15 kts 160°
2026-04-20 17:45 36.39942 25.47734 85 ft 15 kts 157°
2026-04-20 17:46 36.39827 25.47790 84 ft 18 kts 159°
2026-04-20 17:46 36.39707 25.47847 80 ft 20 kts 159°
2026-04-20 17:46 36.39570 25.47911 74 ft 21 kts 159°
2026-04-20 17:46 36.39427 25.47978 69 ft 23 kts 160°
2026-04-20 17:47 36.39280 25.48048 62 ft 22 kts 158°
2026-04-20 17:47 36.39137 25.48116 61 ft 22 kts 159°
2026-04-20 17:47 36.39009 25.48189 55 ft 16 kts 123°
2026-04-20 17:47 36.39042 25.48306 55 ft 15 kts 25°
2026-04-20 17:48 36.39231 25.48239 56 ft 60 kts 338°
2026-04-20 17:48 36.39857 25.47944 83 ft 129 kts 339°
2026-04-20 17:48 36.40879 25.47451 219 ft 176 kts 335°
2026-04-20 17:48 36.42109 25.46939 731 ft 196 kts 339°
2026-04-20 17:49 36.43422 25.46421 1518 ft 197 kts 339°
2026-04-20 17:49 36.44738 25.46007 2494 ft 191 kts 346°
2026-04-20 17:49 36.45961 25.45775 3709 ft 168 kts 347°
2026-04-20 17:49 36.47089 25.45523 4461 ft 166 kts 346°
2026-04-20 17:50 36.48311 25.45202 4728 ft 191 kts 344°
2026-04-20 17:50 36.49683 25.44815 4915 ft 212 kts 345°
2026-04-20 17:50 36.51173 25.44375 5083 ft 232 kts 344°
2026-04-20 17:50 36.52783 25.43882 5401 ft 245 kts 345°
2026-04-20 17:51 36.54511 25.43339 5674 ft 263 kts 344°
2026-04-20 17:51 36.56305 25.42764 6391 ft 267 kts 344°
2026-04-20 17:51 36.58100 25.42179 7201 ft 267 kts 343°
2026-04-20 17:51 36.59907 25.41585 7916 ft 270 kts 343°
2026-04-20 17:52 36.61737 25.40980 8622 ft 274 kts 343°
2026-04-20 17:52 36.63588 25.40367 9350 ft 276 kts 343°
2026-04-20 17:52 36.65320 25.39348 10016 ft 278 kts 319°
2026-04-20 17:52 36.66679 25.37591 10428 ft 291 kts 308°
2026-04-20 17:53 36.67913 25.35506 10597 ft 312 kts 305°
2026-04-20 17:53 36.69187 25.33186 10757 ft 333 kts 304°
2026-04-20 17:53 36.70524 25.30717 10994 ft 349 kts 304°
2026-04-20 17:53 36.71903 25.28183 11543 ft 355 kts 304°
2026-04-20 17:54 36.73282 25.25666 12226 ft 356 kts 304°
2026-04-20 17:54 36.74690 25.23117 12932 ft 357 kts 304°
2026-04-20 17:54 36.76110 25.20559 13599 ft 360 kts 304°
2026-04-20 17:54 36.77550 25.17970 14198 ft 363 kts 304°
2026-04-20 17:55 36.78989 25.15389 14817 ft 364 kts 304°
2026-04-20 17:55 36.80439 25.12788 15443 ft 365 kts 304°
2026-04-20 17:55 36.81899 25.10169 16061 ft 367 kts 304°
2026-04-20 17:55 36.83367 25.07535 16630 ft 370 kts 304°
2026-04-20 17:56 36.84843 25.04886 17204 ft 372 kts 304°
2026-04-20 17:56 36.86322 25.02227 17798 ft 374 kts 304°
2026-04-20 17:56 36.87796 24.99577 18346 ft 376 kts 304°
2026-04-20 17:56 36.89294 24.96882 18866 ft 377 kts 304°
2026-04-20 17:57 36.90801 24.94166 19366 ft 379 kts 304°
2026-04-20 17:57 36.92296 24.91473 19858 ft 381 kts 304°
2026-04-20 17:57 36.93806 24.88748 20339 ft 383 kts 304°
2026-04-20 17:57 36.95329 24.85998 20816 ft 385 kts 304°
2026-04-20 17:58 36.96859 24.83234 21280 ft 387 kts 304°
2026-04-20 17:58 36.98398 24.80450 21735 ft 389 kts 304°
2026-04-20 17:58 36.99937 24.77664 22190 ft 391 kts 304°
2026-04-20 17:58 37.01490 24.74851 22633 ft 393 kts 304°
2026-04-20 17:59 37.03029 24.72061 23068 ft 395 kts 304°
2026-04-20 17:59 37.04597 24.69215 23496 ft 396 kts 304°
2026-04-20 17:59 37.06164 24.66371 23858 ft 398 kts 304°
2026-04-20 17:59 37.07746 24.63494 24203 ft 400 kts 304°
2026-04-20 18:00 37.09325 24.60621 24539 ft 402 kts 304°
2026-04-20 18:00 37.10917 24.57723 24883 ft 404 kts 304°
2026-04-20 18:00 37.12513 24.54815 25231 ft 405 kts 304°
2026-04-20 18:00 37.14110 24.51901 25542 ft 407 kts 304°
2026-04-20 18:01 37.15717 24.48967 25829 ft 409 kts 304°
2026-04-20 18:01 37.17333 24.46013 26112 ft 412 kts 304°
2026-04-20 18:01 37.18941 24.43074 26471 ft 413 kts 304°
2026-04-20 18:01 37.20564 24.40104 26727 ft 416 kts 304°
2026-04-20 18:02 37.22183 24.37081 26969 ft 418 kts 303°
2026-04-20 18:02 37.23755 24.34003 27243 ft 420 kts 303°
2026-04-20 18:02 37.25313 24.30886 27538 ft 422 kts 302°
2026-04-20 18:02 37.26868 24.27757 27820 ft 423 kts 302°
2026-04-20 18:03 37.28430 24.24616 28147 ft 423 kts 302°
2026-04-20 18:03 37.29983 24.21501 28568 ft 421 kts 303°
2026-04-20 18:03 37.31536 24.18394 29005 ft 419 kts 303°
2026-04-20 18:03 37.33087 24.15296 29412 ft 418 kts 303°
2026-04-20 18:04 37.34632 24.12208 29766 ft 417 kts 303°
2026-04-20 18:04 37.36183 24.09112 30127 ft 416 kts 303°
2026-04-20 18:04 37.37718 24.06045 30425 ft 415 kts 303°
2026-04-20 18:04 37.39254 24.02972 30720 ft 415 kts 303°
2026-04-20 18:05 37.42317 23.96837 31303 ft 413 kts 303°
2026-04-20 18:05 37.43843 23.93775 31612 ft 412 kts 303°
2026-04-20 18:05 37.45345 23.90761 31892 ft 411 kts 303°
2026-04-20 18:06 37.46865 23.87704 32164 ft 411 kts 303°
2026-04-20 18:06 37.48382 23.84653 32448 ft 410 kts 303°
2026-04-20 18:06 37.49889 23.81618 32729 ft 409 kts 303°
2026-04-20 18:06 37.51400 23.78572 33008 ft 408 kts 303°
2026-04-20 18:07 37.52905 23.75537 33273 ft 408 kts 303°
2026-04-20 18:07 37.54407 23.72505 33444 ft 409 kts 303°
2026-04-20 18:07 37.55913 23.69462 33637 ft 410 kts 303°
2026-04-20 18:07 37.57416 23.66421 33938 ft 408 kts 303°
2026-04-20 18:08 37.58899 23.63418 34134 ft 408 kts 303°
2026-04-20 18:08 37.60406 23.60364 34279 ft 409 kts 303°
2026-04-20 18:08 37.61913 23.57308 34450 ft 409 kts 303°
2026-04-20 18:08 37.63414 23.54261 34663 ft 409 kts 303°
2026-04-20 18:09 37.64915 23.51209 34834 ft 409 kts 303°
2026-04-20 18:09 37.66420 23.48149 34995 ft 409 kts 302°
2026-04-20 18:09 37.67923 23.45088 35174 ft 409 kts 302°
2026-04-20 18:09 37.69402 23.42074 35342 ft 408 kts 302°
2026-04-20 18:10 37.70906 23.39007 35482 ft 409 kts 302°
2026-04-20 18:10 37.72403 23.35950 35639 ft 409 kts 302°
2026-04-20 18:10 37.73397 23.33918 35750 ft 409 kts 302°
2026-04-20 18:10 37.74889 23.30868 35916 ft 409 kts 302°
2026-04-20 18:11 37.77893 23.24716 35979 ft 412 kts 302°
2026-04-20 18:11 37.81379 23.17564 35987 ft 409 kts 302°
2026-04-20 18:12 37.83875 23.12432 35988 ft 407 kts 302°
2026-04-20 18:12 37.86814 23.06379 35979 ft 405 kts 302°
2026-04-20 18:13 37.89759 23.00303 35983 ft 404 kts 302°
2026-04-20 18:13 37.92776 22.94291 35985 ft 403 kts 308°
2026-04-20 18:14 37.96694 22.89220 36009 ft 404 kts 317°
2026-04-20 18:14 38.00900 22.84424 36002 ft 406 kts 317°
2026-04-20 18:15 38.05083 22.79620 35998 ft 409 kts 317°
2026-04-20 18:15 38.09305 22.74734 35998 ft 411 kts 316°
2026-04-20 18:16 38.13531 22.69825 35995 ft 413 kts 316°
2026-04-20 18:16 38.17772 22.64889 35995 ft 414 kts 316°
2026-04-20 18:17 38.22022 22.59933 35997 ft 415 kts 316°
2026-04-20 18:17 38.26256 22.54989 36005 ft 415 kts 316°
2026-04-20 18:18 38.30514 22.50009 35997 ft 414 kts 316°
2026-04-20 18:18 38.34724 22.45076 36000 ft 413 kts 316°
2026-04-20 18:19 38.38948 22.40119 36003 ft 411 kts 316°
2026-04-20 18:19 38.43149 22.35181 36005 ft 409 kts 316°
2026-04-20 18:20 38.47326 22.30262 36015 ft 408 kts 316°
2026-04-20 18:20 38.51497 22.25342 36022 ft 408 kts 316°
2026-04-20 18:21 38.55653 22.20433 36021 ft 407 kts 316°
2026-04-20 18:21 38.59926 22.15651 36024 ft 408 kts 320°
2026-04-20 18:22 38.64324 22.11151 36020 ft 408 kts 320°
2026-04-20 18:22 38.68780 22.06614 36029 ft 409 kts 320°
2026-04-20 18:23 38.73230 22.02037 36041 ft 410 kts 320°
2026-04-20 18:23 38.77673 21.97436 36038 ft 411 kts 320°
2026-04-20 18:24 38.82087 21.92851 36049 ft 411 kts 320°
2026-04-20 18:24 38.86540 21.88216 36048 ft 412 kts 320°
2026-04-20 18:25 38.90975 21.83593 36044 ft 413 kts 320°
2026-04-20 18:25 38.95463 21.78907 36040 ft 413 kts 320°
2026-04-20 18:26 38.99909 21.74257 36042 ft 413 kts 320°
2026-04-20 18:26 39.04394 21.69559 36046 ft 413 kts 320°
2026-04-20 18:27 39.08850 21.64883 36050 ft 413 kts 320°
2026-04-20 18:27 39.13284 21.60222 36037 ft 413 kts 320°
2026-04-20 18:28 39.17744 21.55527 36033 ft 413 kts 320°
2026-04-20 18:28 39.22191 21.50836 36053 ft 412 kts 320°
2026-04-20 18:29 39.26619 21.46157 36033 ft 411 kts 320°
2026-04-20 18:29 39.31041 21.41479 36035 ft 411 kts 320°
2026-04-20 18:30 39.35464 21.36790 36053 ft 411 kts 320°
2026-04-20 18:30 39.39876 21.32105 36047 ft 410 kts 320°
2026-04-20 18:31 39.44254 21.27448 36042 ft 410 kts 320°
2026-04-20 18:31 39.48640 21.22775 36053 ft 409 kts 320°
2026-04-20 18:32 39.53051 21.18067 36054 ft 409 kts 319°
2026-04-20 18:32 39.57458 21.13356 36051 ft 410 kts 319°
2026-04-20 18:33 39.61852 21.08652 36057 ft 410 kts 319°
2026-04-20 18:33 39.66255 21.03928 36061 ft 411 kts 319°
2026-04-20 18:34 39.70640 20.99216 36046 ft 412 kts 319°
2026-04-20 18:34 39.75063 20.94454 36048 ft 412 kts 319°
2026-04-20 18:35 39.79486 20.89686 36047 ft 413 kts 319°
2026-04-20 18:35 39.83908 20.84910 36048 ft 413 kts 319°
2026-04-20 18:36 39.88309 20.80147 36053 ft 413 kts 319°
2026-04-20 18:36 39.92733 20.75352 36042 ft 414 kts 319°
2026-04-20 18:37 39.97168 20.70537 36032 ft 414 kts 319°
2026-04-20 18:37 40.01560 20.65759 36029 ft 414 kts 319°
2026-04-20 18:38 40.05994 20.60928 36030 ft 414 kts 319°
2026-04-20 18:38 40.10452 20.56138 36037 ft 413 kts 320°
2026-04-20 18:39 40.14921 20.51456 36041 ft 413 kts 320°
2026-04-20 18:39 40.19419 20.46741 36032 ft 413 kts 319°
2026-04-20 18:40 40.23860 20.42062 36030 ft 412 kts 319°